Regional Weather Roundup
Issued by NWS

Home | Current Version | Previous Version | Graphics & Text | Print | Product List | Glossary On
Versions: 1 2 3 4 5 6 7 8 9 10 11 12 13 14 15 16 17 18 19 20 21 22 23 24 25 26 27 28 29 30 31 32 33 34 35 36 37 38 39 40 41 42 43 44 45 46 47 48 49 50
000
ASUS43 KDMX 220401
RWRIA

WEATHER ROUNDUP FOR IOWA
NATIONAL WEATHER SERVICE DES MOINES IA
1100 PM CDT FRI JUL 21 2017

NOTE: "FAIR" INDICATES FEW OR NO CLOUDS BELOW 12,000 FEET WITH NO
SIGNIFICANT WEATHER AND/OR OBSTRUCTIONS TO VISIBILITY.

* - THESE STATIONS ARE NOT NWS STATIONS...THUS NOT UNDER NWS
QUALITY CONTROL.  THEY ALSO DO NOT REPORT WEATHER SUCH
AS PRECIPITATION OR FOG.

IAZ001>003-012>014-020>022-031>034-043>046-220500-
   NORTHWEST IOWA

CITY           SKY/WX    TMP DP  RH WIND       PRES   REMARKS
CARROLL *      CLOUDY    77  77 100 SE6       29.73F FOG
CHEROKEE *     CLOUDY    77  76  97 NE6       29.76F
DENISON *      CLOUDY    81  81 100 CALM      29.75F HX  91
ORANGE CITY *  CLOUDY    75  75 100 E7        29.78S
SHELDON *      CLOUDY    73  73 100 NE7       29.78S
SIOUX CITY     CLOUDY    81  79  94 NE7       29.72R HX  90
SPENCER        CLOUDY    75  73  93 NE12      29.80S
STORM LAKE *   CLOUDY    75  75 100 E13       29.78S FOG
$$

IAZ055>058-069>071-079>083-090>094-220500-
   SOUTHWEST IOWA

CITY           SKY/WX    TMP DP  RH WIND       PRES   REMARKS
ATLANTIC *     PTCLDY    84  73  70 S9        29.73F HX  91
AUDUBON *      CLOUDY    82  75  78 SW5       29.75F HX  89
CLARINDA *     CLEAR     82  77  83 S10       29.77S HX  91
COUNCIL BLFS * CLOUDY    86  73  66 SW8       29.73S HX  93
CRESTON *      CLEAR     84  75  74 S18G28    29.77F HX  92
HARLAN  *      MOCLDY    81  81 100 CALM      29.76F HX  91
LAMONI         CLEAR     84  76  76 S14       29.79F HX  93
RED OAK *      CLEAR     84  73  70 S13       29.73F HX  91
SHENANDOAH *   CLEAR     86  73  66 S16G23    29.73F HX  93
$$

IAZ047>049-059>061-072>074-084-220500-
   CENTRAL IOWA

CITY           SKY/WX    TMP DP  RH WIND       PRES   REMARKS
AMES           CLEAR     77  77 100 CALM      29.74F
ANKENY *       CLEAR     84  75  74 S5        29.74F HX  92
BOONE *        CLOUDY    75  75 100 CALM      29.75F FOG
CHARITON *     CLEAR     86  75  70 S14G21    29.77S HX  95
DES MOINES     CLEAR     87  75  67 S7        29.73S HX  96
GRINNELL*      CLEAR     82  76  81 S7        29.76F HX  89
KNOXVILLE *    CLEAR     86  75  70 S10G18    29.74F HX  95
MARSHALLTOWN   PTCLDY    74  73  97 SE6       29.74F
NEWTON *       CLEAR     82  77  83 S9        29.75F HX  91
PELLA *        CLEAR     86  74  66 S9G16     29.76F HX  94
$$

IAZ004>006-015-016-023>025-035-036-220500-
   NORTH CENTRAL IOWA

CITY           SKY/WX    TMP DP  RH WIND       PRES   REMARKS
ALGONA *       CLOUDY    73  73 100 NE7       29.80F
CLARION *      CLOUDY    72  72 100 NE7       29.77F
ESTHERVILLE    CLOUDY    73  73 100 NE10      29.81S
FORT DODGE *   CLOUDY    73  72  94 NE7       29.77F
MASON CITY     CLOUDY    71  70  96 NE7       29.81F
FOREST CITY *  MOCLDY    72  70  94 NE5       29.81F
WEBSTER CITY * CLOUDY    73  72  94 E7        29.74F
IOWA FALLS *     N/A     73  71  94 NE3       29.77F
$$

IAZ007>011-017>019-026>030-037>042-050>054-066-220500-
   NORTHEAST IOWA

CITY           SKY/WX    TMP DP  RH WIND       PRES   REMARKS
CEDAR RAPIDS   MOCLDY    73  73 100 SE6       29.75F
CHARLES CITY * HVY RAIN  72  72 100 E24       29.76F
CLINTON *      CLOUDY    72  72 100 SE9       29.80F
DECORAH *      CLOUDY    70  70 100 NE8       29.81F
DUBUQUE        CLOUDY    71  70  96 E10       29.81F
MONTICELLO *   CLOUDY    73  72  94 SE8       29.76F
OELWEIN *      HVY RAIN  70  66  88 N21G46    29.80R
WATERLOO       CLOUDY    73  70  90 NE13      29.78R
$$

IAZ064-065-067-068-078-220500-
   EAST CENTRAL IOWA

CITY           SKY/WX    TMP DP  RH WIND       PRES   REMARKS
DAVENPORT      CLOUDY    75  72  90 E10       29.82F
IOWA CITY      MOCLDY    77  74  90 S3        29.78F
MUSCATINE *    CLEAR     77  73  88 CALM      29.78F
QUAD CITIES    CLOUDY    78  73  84 E10       29.80S HX  81
$$

IAZ062-063-075>077-085>089-095>099-220500-
   SOUTHEAST IOWA

CITY           SKY/WX    TMP DP  RH WIND       PRES   REMARKS
BURLINGTON     CLOUDY    84  75  74 SW10      29.80S HX  92
FAIRFIELD *    PTCLDY    86  73  66 S14G20    29.78F HX  93
FORT MADISON * CLEAR     84  73  70 SW9       29.82F HX  91
KEOKUK *       CLEAR     84  73  70 S9        29.82S HX  91
OSKALOOSA *      N/A     85  74  69 S12       29.77F HX  93
OTTUMWA        CLEAR     87  75  67 S15G24    29.77F HX  96
WASHINGTON *   CLEAR     84  75  74 SW9       29.78F HX  92
$$

ABBREVIATIONS USED IN REMARKS
   TC - TEMPERATURES IN CELSIUS
  WCI - WIND CHILL INDEX
   HX - HEAT INDEX
  VSB - VISIBILITY
$$




USA.gov is the U.S. government's official web portal to all federal, state and local government web resources and services.